Погода в Широком

Россия / Магаданская область     63°04′50″N   148°02′30″E
темп.,
°C
ветер,
м/с
пор.,
м/с
влажн.,
%
обл.,
%
осадки,
мм/ч
давл.,
гПа
погр.,
м
24 мая, вт
вт2423:000ююз51099100 2.1 1010586
02:00−4ю589635 0.3 1012187
05:00−7ю469983 0.3 1015134
08:00−4ююз459285 0.0 1015345
11:00−2ююз358992 0.1 1014561
14:00+1юз3484100 0.0 1013650
17:00+1юз2479100 0.0 1013692
20:00+2ююз347981 0.0 1013138
25 мая, ср
ср2523:00−2ююз229171 0.0 101413
02:00−3ююз229484 0.0 101310
05:00−3ю119525 0.0 101210
08:00−1ю23838 0.0 1010331
11:00+2ю457136 0.0 1007761
14:00+4ю566230 0.0 10031012
17:00+5ююз665972 0.0 10021198
20:00+3ююз466985 0.0 1002404
26 мая, чт
чт2623:000ю338468 0.0 100440
02:000ю2276100 0.0 100337
05:000ю1172100 0.0 100317
08:00+1юз1163100 0.0 1003682
11:00+2в1159100 0.0 10031001
14:00+2в1274100 0.1 1003720
17:00+3в2272100 0.1 1003734
20:00+4всв2370100 0.0 1004700
27 мая, пт
пт2723:00+2ссв229289 0.0 100647
02:00+1с2297100 0.0 1006187
05:00+1с2399100 0.2 1007110
08:00+2ссв2295100 0.1 1007217
11:00+3в347983 0.1 1008660
14:00+5в546284 0.0 10081061
17:00+5в546296 0.1 10091042
20:00+4в546676 0.0 1011724
28 мая, сб
сб2823:00+2всв118186 0.0 101310
02:00+1всв118580 0.0 101410
05:00+1в118555 0.0 101611
08:00+3ююв126969 0.0 1016642
11:00+5ю3366100 0.1 1015990
14:00+6ююз3461100 0.1 10151160
17:00+7юз4556100 0.5 10141321
20:00+6юз455997 0.3 1014909